Location: Bavegemberg
(50.9500°N, 3.8833°E)
Time: 02:06:18
(UTC+00:00)

USA 267 - Pass Details

Date: 23 May 2024
Orbit: 1100 x 1107 km, 123.0° (Epoch: 21 May)

Event Time Altitude Azimuth Distance (km) Brightness Sun altitude
Rises 00:15:43 0° 58° (ENE) 3,923 6.8 -18.0°
Reaches altitude 10° 00:18:12 10° 60° (ENE) 2,963 6.0 -18.0°
Maximum altitude 00:24:46 81° 147° (SSE) 1,119 3.2 -17.8°
Enters shadow 00:30:21 15° 235° (SW) 2,589 4.8 -17.6°
